Clearfield, PA

1:21 AM EST on January 20, 2017 (GMT -0500)
Clearfield-Lawrence

Weather History for KFIG - November, 2013

Change the Weather History Date:

Saturday, November 23, 2013

  Actual Average (KDUJ) Record (KDUJ)
Temperature  
Mean Temperature 26 °F -  
Max Temperature 36 °F 45 °F 70 °F (1979)
Min Temperature 17 °F 29 °F 9 °F (2000)
Degree Days  
Heating Degree Days 38    
Moisture  
Dew Point 20 °F    
Average Humidity 73    
Maximum Humidity 89    
Minimum Humidity 52    
Precipitation  
Precipitation 0.00 in - - ()
Sea Level Pressure  
Sea Level Pressure 30.12 in    
Wind  
Wind Speed 13 mph (WNW)    
Max Wind Speed 26 mph    
Max Gust Speed 36 mph    
Visibility 6 miles    
Events Fog , Snow    
Averages and records for this station are not official NWS values.
T = Trace of Precipitation, MM = Missing Value Source: NWS Daily Summary

Daily Weather History Graph

Daily Weather History Graph

Search for Another Location

Airport or City:

Trip Planner

Search our weather history database for the weather conditions in past years. The results will help you decide how hot, cold, wet, or windy it might be!

Date:

Astronomy

Nov. 23, 2013 Rise Set
Actual Time 7:10 AM EST 4:49 PM EST
Civil Twilight 6:40 AM EST 5:19 PM EST
Nautical Twilight 6:06 AM EST 5:52 PM EST
Astronomical Twilight 5:34 AM EST 6:25 PM EST
Moon 10:17 PM EST (11/23) 11:25 AM EST (11/23)
Length of Visible Light 10h 38m
Length of Day
9h 38m
Waning Gibbous, 70% of the Moon is Illuminated
Nov 23
Waning Gibbous
Nov 25
Last Quarter
Dec 2
New
Dec 9
First Quarter
Dec 17
Full

Hourly Weather History & Observations

Time (EST) Temp. Windchill Dew Point Humidity Pressure Visibility Wind Dir Wind Speed Gust Speed Precip Events Conditions
12:54 AM 34.0 °F 25.0 °F 27.0 °F 75% 30.17 in 10.0 mi NW 12.7 mph 21.9 mph N/A   Partly Cloudy
1:16 AM 34.0 °F 24.6 °F 27.0 °F 75% 30.14 in 10.0 mi NW 13.8 mph 20.7 mph N/A   Mostly Cloudy
1:54 AM 33.1 °F 24.9 °F 26.1 °F 75% 30.18 in 10.0 mi NW 10.4 mph 19.6 mph N/A   Scattered Clouds
2:17 AM 33.1 °F 23.4 °F 26.1 °F 75% 30.16 in 10.0 mi NNW 13.8 mph 24.2 mph N/A   Mostly Cloudy
2:38 AM 32.0 °F 22.1 °F 25.0 °F 75% 30.16 in 10.0 mi NW 13.8 mph - N/A   Scattered Clouds
2:54 AM 32.0 °F 24.8 °F 24.1 °F 73% 30.19 in 10.0 mi WNW 8.1 mph - N/A   Partly Cloudy
3:54 AM 30.0 °F 20.5 °F 23.0 °F 75% 30.18 in 10.0 mi NW 11.5 mph 18.4 mph N/A   Clear
4:54 AM 28.9 °F 25.2 °F 23.0 °F 78% 30.19 in 10.0 mi SW 3.5 mph - N/A   Partly Cloudy
5:06 AM 28.9 °F 22.8 °F 23.0 °F 78% 30.15 in 10.0 mi SW 5.8 mph - N/A   Mostly Cloudy
5:54 AM 28.9 °F 20.4 °F 21.9 °F 75% 30.19 in 10.0 mi WNW 9.2 mph 17.3 mph N/A   Mostly Cloudy
6:54 AM 28.9 °F 22.8 °F 21.9 °F 75% 30.20 in 10.0 mi WNW 5.8 mph - N/A   Overcast
7:46 AM 28.0 °F 22.8 °F 21.9 °F 78% 30.16 in 10.0 mi West 4.6 mph - N/A   Scattered Clouds
7:54 AM 28.0 °F 24.2 °F 21.9 °F 78% 30.20 in 10.0 mi WSW 3.5 mph - N/A   Partly Cloudy
8:13 AM 28.9 °F 21.9 °F 21.9 °F 75% 30.16 in 10.0 mi SW 6.9 mph - N/A   Mostly Cloudy
8:54 AM 28.9 °F 21.9 °F 23.0 °F 78% 30.19 in 10.0 mi SW 6.9 mph - N/A   Overcast
9:54 AM 30.0 °F 19.5 °F 21.9 °F 72% 30.19 in 10.0 mi West 13.8 mph 18.4 mph N/A   Overcast
10:54 AM 30.9 °F 19.8 °F 21.0 °F 67% 30.17 in 10.0 mi WNW 16.1 mph 25.3 mph N/A   Overcast
11:21 AM 33.1 °F 23.4 °F 21.9 °F 64% 30.11 in 10.0 mi West 13.8 mph 20.7 mph N/A   Mostly Cloudy
11:54 AM 34.0 °F 24.2 °F 21.0 °F 59% 30.12 in 10.0 mi WSW 15.0 mph 26.5 mph N/A   Mostly Cloudy
12:54 PM 36.0 °F 26.7 °F 21.0 °F 55% 30.09 in 10.0 mi West 15.0 mph 23.0 mph N/A   Partly Cloudy
1:54 PM 34.0 °F 23.4 °F 18.0 °F 52% 30.06 in 10.0 mi West 17.3 mph 29.9 mph N/A   Overcast
2:22 PM 32.0 °F 20.8 °F 23.0 °F 69% 30.03 in 2.5 mi West 17.3 mph 27.6 mph 0.00 in Snow Light Snow
2:26 PM 30.0 °F 17.9 °F 25.0 °F 82% 30.03 in 0.8 mi WNW 18.4 mph 29.9 mph 0.00 in Snow Light Snow
2:42 PM 30.0 °F 19.5 °F 23.0 °F 75% 30.02 in 2.0 mi West 13.8 mph 34.5 mph 0.00 in Snow Light Snow
2:50 PM 30.2 °F 20.2 °F 21.2 °F 69% 30.02 in 9.0 mi West 12.7 mph 25.3 mph 0.00 in   Overcast
2:54 PM 30.9 °F 19.4 °F 21.0 °F 67% 30.07 in 9.0 mi West 17.3 mph 25.3 mph 0.00 in   Overcast
3:24 PM 30.0 °F 16.6 °F 21.0 °F 69% 30.04 in 1.8 mi WNW 23.0 mph 31.1 mph 0.00 in Snow Light Snow
3:32 PM 28.9 °F 16.1 °F 21.9 °F 75% 30.04 in 1.2 mi WNW 19.6 mph 31.1 mph 0.00 in Snow Light Snow
3:36 PM 28.9 °F 16.5 °F 21.9 °F 75% 30.04 in 3.0 mi West 18.4 mph 28.8 mph 0.00 in Snow Light Snow
3:41 PM 28.9 °F 16.5 °F 21.9 °F 75% 30.05 in 1.5 mi WNW 18.4 mph 28.8 mph 0.00 in Snow Light Snow
3:47 PM 27.0 °F 15.2 °F 24.1 °F 89% 30.05 in 0.2 mi WNW 15.0 mph 32.2 mph 0.00 in Fog , Snow Heavy Snow
3:54 PM 28.0 °F 17.0 °F 23.0 °F 81% 30.10 in 0.8 mi WNW 13.8 mph 23.0 mph 0.00 in Snow Light Snow
3:56 PM 28.0 °F 16.1 °F 21.9 °F 78% 30.05 in 2.0 mi WNW 16.1 mph 23.0 mph 0.00 in Snow Light Snow
4:03 PM 28.0 °F 16.1 °F 19.9 °F 72% 30.05 in 9.0 mi West 16.1 mph 25.3 mph 0.00 in   Overcast
4:41 PM 28.0 °F 13.9 °F 19.9 °F 72% 30.06 in 1.5 mi WNW 23.0 mph 29.9 mph 0.00 in Snow Light Snow
4:44 PM 27.0 °F 12.8 °F 21.9 °F 81% 30.06 in 0.5 mi WNW 21.9 mph 29.9 mph 0.00 in Snow Snow
4:46 PM 26.1 °F 10.4 °F 21.9 °F 84% 30.07 in 0.2 mi WNW 26.5 mph 35.7 mph 0.00 in Fog , Snow Snow
4:54 PM 26.1 °F 14.0 °F 21.0 °F 81% 30.12 in 0.5 mi NW 15.0 mph 35.7 mph 0.00 in Snow Snow
4:59 PM 26.1 °F 14.0 °F 19.9 °F 78% 30.06 in 2.5 mi WNW 15.0 mph 28.8 mph 0.00 in Snow Light Snow
5:06 PM 26.1 °F 13.6 °F 19.9 °F 78% 30.06 in 9.0 mi NW 16.1 mph - 0.00 in   Mostly Cloudy
5:23 PM 26.1 °F 13.1 °F 19.0 °F 75% 30.07 in 10.0 mi NW 17.3 mph 27.6 mph 0.00 in   Mostly Cloudy
5:54 PM 26.1 °F 11.0 °F 14.0 °F 60% 30.14 in 10.0 mi WNW 24.2 mph 34.5 mph 0.00 in   Mostly Cloudy
6:54 PM 24.1 °F 10.1 °F 12.9 °F 62% 30.16 in 10.0 mi WNW 18.4 mph 25.3 mph N/A   Partly Cloudy
7:05 PM 23.0 °F 10.1 °F 16.0 °F 74% 30.11 in 1.5 mi WNW 15.0 mph 25.3 mph 0.00 in Snow Light Snow
7:12 PM 21.9 °F 6.5 °F 17.1 °F 82% 30.11 in 1.0 mi NW 20.7 mph 27.6 mph 0.00 in Snow Light Snow
7:22 PM 21.9 °F 8.7 °F 16.0 °F 78% 30.11 in 3.0 mi NW 15.0 mph 31.1 mph 0.00 in Snow Light Snow
7:50 PM 21.2 °F 4.9 °F 12.2 °F 68% 30.12 in 9.0 mi NW 23.0 mph 34.5 mph 0.00 in   Overcast
7:54 PM 21.9 °F 7.8 °F 12.9 °F 68% 30.19 in 8.0 mi NW 17.3 mph 34.5 mph 0.00 in Snow Light Snow
8:24 PM 21.0 °F 5.0 °F 14.0 °F 74% 30.14 in 2.0 mi NW 21.9 mph 35.7 mph 0.00 in Snow Light Snow
8:29 PM 21.0 °F 6.2 °F 12.9 °F 71% 30.14 in 1.8 mi NW 18.4 mph 35.7 mph 0.00 in Snow Light Snow
8:33 PM 21.0 °F 7.1 °F 12.0 °F 68% 30.14 in 4.0 mi NW 16.1 mph 35.7 mph 0.00 in Snow Light Snow
8:54 PM 19.9 °F 4.3 °F 8.1 °F 60% 30.22 in 10.0 mi NW 19.6 mph 35.7 mph 0.00 in   Overcast
9:54 PM 19.0 °F 6.8 °F 6.1 °F 57% 30.22 in 10.0 mi NW 11.5 mph 31.1 mph N/A   Mostly Cloudy
10:54 PM 19.0 °F 6.1 °F 8.1 °F 62% 30.23 in 7.0 mi NW 12.7 mph 19.6 mph 0.00 in Snow Light Snow
11:23 PM 18.0 °F 7.7 °F 12.0 °F 78% 30.17 in 2.5 mi WNW 8.1 mph - 0.00 in Snow Light Snow
11:49 PM 17.6 °F 3.7 °F 12.2 °F 79% 30.17 in 3.0 mi WNW 13.8 mph - 0.00 in Snow Light Snow
11:54 PM 18.0 °F 6.1 °F 12.9 °F 81% 30.23 in 5.0 mi WNW 10.4 mph - 0.00 in Snow Light Snow